Regional Weather Roundup
Issued by NWS

Home | Current Version | Previous Version | Graphics & Text | Print | Product List | Glossary On
Versions: 1 2 3 4 5 6 7 8 9 10 11 12 13 14 15 16 17 18 19 20 21 22 23 24 25 26 27 28
000
ASUS45 KTFX 230510
RWRMT
MONTANA REGIONAL WEATHER ROUNDUP
NATIONAL WEATHER SERVICE GREAT FALLS MT
1100 PM MDT SUN OCT 22 2017

NOTE: "FAIR" INDICATES FEW OR NO CLOUDS BELOW 12000 FEET WITH NO
SIGNIFICANT WEATHER AND/OR OBSTRUCTIONS TO VISIBILITY.

MTZ001>007-043-230600-
WEST OF THE DIVIDE

CITY           SKY/WX    TMP DP  RH WIND       PRES   REMARKS
KALISPELL      PTCLDY    41  33  73 SW7       30.28R
MISSOULA       LGT RAIN  43  38  82 MISG      30.36R
BUTTE          CLOUDY    39  26  59 SW8       30.34R
MULLAN PASS    CLOUDY    34  28  79 MISG      30.34R
ANACONDA         N/A     41  25  52 W10G16    30.34R
DEER LODGE       N/A     39  32  75 CALM      30.34S
EUREKA           N/A     45  30  57 MISG      30.25R
HAMILTON         N/A     43  36  75 W3        30.38R
LIBBY            N/A     46  34  61 CALM      30.29R
PLAINS           N/A     50  31  48 CALM      30.33R
$$

MTZ008-052>055-230600-
SOUTHWEST MONTANA

CITY           SKY/WX    TMP DP  RH WIND       PRES   REMARKS
BOZEMAN        CLOUDY    44  29  55 W20       30.31R
DILLON         CLOUDY    42  24  49 SW15      30.36R
W YELLOWSTONE  CLOUDY    37  32  81 SW6       30.33R
ENNIS          CLOUDY    37  23  56 CALM      30.40R
THREE FORKS      N/A     46  25  44 SW9       30.27R
TWIN BRIDGES     N/A     42  23  47 CALM      30.31R
$$

MTZ009-010-012-014-046-048-049-054-230600-
EAST SLOPES AND CENTRAL MONTANA

CITY           SKY/WX    TMP DP  RH WIND       PRES   REMARKS
CUT BANK       CLEAR     41  28  60 W24G35    30.08R
GREAT FALLS    CLEAR     45  22  40 W20G28    30.14R
MALMSTROM AFB  CLEAR     43  28  56 SW13      30.15R
HELENA         CLOUDY    46  29  51 W13       30.29R
BOWMANS CRNR     N/A     41  26  54 SW25      30.18R
CHOTEAU          N/A     45  25  45 W26G38    30.15R
FAIRFIELD        N/A     45  22  39 W21       30.13R
POWER            N/A     41  22  47 W13       30.13R
RAYNESFORD       N/A     45  24  43 SW25G35   30.14R
ULM              N/A     45  28  51 W25G31    30.16R
$$

MTZ011-013-016-021-045-047-050-051-230600-
NORTH CENTRAL MONTANA

CITY           SKY/WX    TMP DP  RH WIND       PRES   REMARKS
HAVRE          PTCLDY    42  28  57 W6        30.04R
LEWISTOWN      CLEAR     46  20  35 W28G41    30.11R
N BAR RANCH      N/A     45  18  33 NW28G37   30.11R
CHINOOK          N/A     46  28  49 SW15      30.02R
DENTON           N/A     46  24  41 W26       30.07R
GEYSER           N/A     45  23  41 W24G33    30.13R
GRASS RANGE      N/A     48  20  33 W29G39    30.06R
JUDITH GAP       N/A     44  19  36 W26G37    30.13R
STANFORD         N/A     45  18  33 W24G36    30.13R
WINIFRED       MOCLDY    48  22  36 W23       30.09R
$$

MTZ017>020-022>027-061-062-230600-
NORTHEAST MONTANA

CITY           SKY/WX    TMP DP  RH WIND       PRES   REMARKS
GLASGOW        LGT RAIN  47  37  68 NW30G36   29.93R
JORDAN           N/A     51  26  37 W23G35    29.98R
SIDNEY         PTCLDY    50  35  56 W16       29.82R
WOLF POINT     CLOUDY    48  39  71 W23G33    29.89R
MALTA          MOCLDY    46  36  66 W20       29.98F
PLENTYWOOD       N/A     48  30  49 W22       29.77R
POPLAR           N/A     48  37  66 W15G22    29.87R
$$

MTZ028>42-056>058-230600-
SOUTHCENTRAL AND SOUTHEAST MONTANA

CITY           SKY/WX    TMP DP  RH WIND       PRES   REMARKS
BAKER          CLEAR     44  38  79 W16       29.93R
BILLINGS       CLEAR     51  20  29 NW30G43   30.14R
LIVINGSTON     CLOUDY    46  24  42 W20G30    30.27R
MILES CITY     CLEAR     52  26  36 NW22G32   29.99R
BIG TIMBER     MOCLDY    46  23  39 W31       30.24S
FORSYTH          N/A     54  21  28 W17G32    30.04R
HARLOWTON        N/A     44  22  43 W28G39    30.15R
LAUREL           N/A     46  21  36 W12       30.17R
$$

REGIONAL REPORTS...DAKOTAS

CITY           SKY/WX    TMP DP  RH WIND       PRES   REMARKS
WILLISTON      PTCLDY    50  37  62 MISG      29.77R
MINOT          CLOUDY    53  34  48 W23G33    29.65R
DICKINSON      MOCLDY    51  32  48 W20G29    29.81R
BEACH            N/A     46  34  61 W25G36    29.91R
CROSBY           N/A     45  32  61 NW16G22   29.73R
TIOGA            N/A     48  32  53 W20G29    29.73R
BISMARCK       CLEAR     56  41  57 W18G26    29.74R
GRAND FORKS    CLOUDY    54  33  45 S13       29.57F
FARGO          LGT RAIN  57  35  43 S13       29.64F
BUFFALO SD       N/A     48  38  68 W21       29.88R
RAPID CITY     CLOUDY    57  32  38 NW22G38   29.99R
$$

REGIONAL REPORTS...WYOMING/IDAHO/WASHINGTON

CITY           SKY/WX    TMP DP  RH WIND       PRES   REMARKS
GILLETTE       CLOUDY    49  37  63 NW13G25   30.07S
SHERIDAN       CLOUDY    51  34  52 NW25G36   30.12R
BUFFALO WY     PTCLDY    47  32  56 N25G39    30.11R
CODY           LGT RAIN  46  38  73 N6        30.20R
YELLOWSTONE LA   N/A     34  31  88 VRB6      30.32R WCI  29
IDAHO FALLS    CLOUDY    47  38  71 SW14      30.33R
SALMON         CLOUDY    42  33  70 SE5       30.40R
BOISE          PTCLDY    51  46  83 NW3       30.44R
SPOKANE        CLOUDY    44  37  76 W9        30.36R
$$

REGIONAL REPORTS...ALBERTA

CITY           SKY/WX    TMP DP  RH WIND       PRES   REMARKS
EDMONTON       PTCLDY    37  28  70 W8        29.87R WCI  31
CALGARY        PTCLDY    45  21  39 W17G24    30.00R
LETHBRIDGE     CLEAR     43  25  49 W16       30.06R
MEDICINE HAT   CLEAR     45  28  53 W14       29.97R
$$

REGIONAL REPORTS...SASKATCHEWAN

CITY           SKY/WX    TMP DP  RH WIND       PRES   REMARKS
SWIFT CURRENT  CLEAR     41  30  65 NW18G24   29.84R
REGINA         CLOUDY    36  32  87 W9        29.75R WCI  29
SASKATOON      MOCLDY    36  34  93 W9        29.78R WCI  29
$$




USA.gov is the U.S. government's official web portal to all federal, state and local government web resources and services.